SL-24 R/B, 40047

Orbit data source: Space-Track

SL-24 R/B, 40047 is space debris in SSO originally from a launch on Thu, 19 Jun 2014 UTC launched from the Orenburg, Russia (OREN). Debris objects in space refer to the collection of defunct objects orbiting the Earth. Examples of debris include non-operational satellites, rocket bodies, and fragments generated from explosions, collisions, or faulty payload assembly.

Loading next visibility...
Identifier
40047, 2014-033AP
Orbit
SSO
Country
Flag of CISCIS
Related business
Manufacturer
Yuzhnoe
Mission
Spacecraft
Bus & Motor
15A18-BR, Unknown motor
Mass
~1,000 kg wet, ~1,000 kg dry
Launch date (UTC)
2014-06-19 (12 years ago)
Launch vehicle
Unknown
Launch site
Orenburg, Russia (OREN)
Object type
Payload
Rocket body
Debris
Shape & HBR
Cyl, 2.1 m
Radar Cross Section
10.603 m², Large (>1 m²)

Expand to show TLE details & history
Last TLE update: 13 hours ago

TLE from 13 hours ago
0 SL-24 R/B
1 40047U 14033AP  26253.99774806  .00000017  00000-0  21385-4 0  9995
2 40047  97.8582  96.4211 0568555  59.2580 306.3299 13.61974382607719
Epoch: 2026-09-10T23:56Z
TLE epoch observation values (Epoch: 2026-09-10T23:56:45.432Z)
Latitude
-0.00005°
Longitude
107.20438°
Altitude
798.201 km
Speed
7.571 km/s
True Right ascension
06h 25m 41s
True Declination
0° 00' 00"
Sunlit
Object was in daylight at epoch
Visualization orbit readout
Latitude
Unknown
Longitude
Unknown
Altitude
Unknown
Speed
Unknown
Apparent Right ascension
Unknown
Apparent Declination
Unknown
Sunlit
N/A
Visualization observer readout
Local Sidereal Time
05:07:10
Azimuth
Unknown
Elevation
Unknown
Doppler factor
Unknown
Orbital elements
Apogee altitude
1,446.66 km
Perigee altitude
604.761 km
Semi-major axis
7,403.848 km
Eccentricity
0.05686
Inclination
97.8582°
RAAN
96.4211°
Arg. of periapsis
59.258°
True anomaly
300.85925°
Mean anomaly
306.3299°
Eccentric anomaly
303.61713°
Mean motion
3.40688 °/min
Orbital period
105.67 mins
BSTAR
0.000021385
Loading maneuver chart data...
Computing Atmospheric mass density...
Loading historical data...
Loading historical data...
Loading historical data...
Loading historical data...
Loading historical data...
Loading historical data...
Loading historical data...

Documentation

Showing up to 5 results
|